Regional Weather Roundup
Issued by NWS

Home | Current Version | Previous Version | Graphics & Text | Print | Product List | Glossary On
Versions: 1 2 3 4 5 6 7 8 9 10 11 12 13 14 15 16 17 18 19 20 21 22 23 24 25 26 27 28 29 30 31 32 33 34 35 36 37 38 39 40 41 42 43 44 45 46 47 48 49 50
000
ASUS43 KIND 011859
RWRIN

WEATHER ROUNDUP FOR INDIANA
NATIONAL WEATHER SERVICE INDIANAPOLIS IN
300 PM EDT WED APR 01 2015

NOTE: "FAIR" INDICATES FEW OR NO CLOUDS BELOW 12,000 FEET WITH NO
SIGNIFICANT WEATHER AND/OR OBSTRUCTIONS TO VISIBILITY.

* - STATION DOES NOT REPORT WEATHER SUCH AS PRECIPITATION OR FOG.

+ - STATION NOT QUALITY CONTROLLED BY THE NATIONAL WEATHER SERVICE.
    USE DATA WITH CAUTION...ESPECIALLY DEWPOINT AND RELATIVE
    HUMIDITY OBSERVATIONS.

INZ001>003-010>013-019-020-012000-
NORTHWEST INDIANA

CITY           SKY/WX    TMP DP  RH WIND       PRES   REMARKS
GARY /AIRPORT/ SUNNY     72  23  16 S12       30.00F

$$

LMZ046-743>745-012000-
SOUTHERN LAKE MICHIGAN

STATION/POSITION TIME  TEMP WIND        PRES
                       AIR  DIR/SP/G
                 (UTC) (F)  (DEG/KT/KT) (MB)
BURNS HARBOR     1800   46   80/  5/  7 1016.9F
MICHIGAN CITY    1800   43   20/ 10/ 12   N/A

$$

INZ004-005-014>016-021>024-012000-
NORTH CENTRAL INDIANA

CITY           SKY/WX    TMP DP  RH WIND       PRES   REMARKS
ELKHART        SUNNY     66  30  26 SW5       30.04F
GOSHEN         SUNNY     66  37  34 SW9G18    30.04F
SOUTH BEND     SUNNY     67  33  28 SW6       30.03F

$$

INZ006>009-017-018-025>027-012000-
NORTHEAST INDIANA

CITY           SKY/WX    TMP DP  RH WIND       PRES   REMARKS
ANGOLA *+      SUNNY     64  37  36 S9        30.05F
FORT WAYNE     SUNNY     65  35  33 S7        30.07F

$$

INZ028-029-035-036-043>045-051>053-012000-
WEST CENTRAL INDIANA

CITY           SKY/WX    TMP DP  RH WIND       PRES   REMARKS
GREENCASTLE +  SUNNY     66  30  26 SE9G16    30.06F
LAFAYETTE      SUNNY     68  34  28 SW9       30.04F
TERRE HAUTE    SUNNY     68  39  34 S10       30.06F

$$

INZ030>032-037>040-046>048-054>057-064-065-012000-
CENTRAL INDIANA

CITY           SKY/WX    TMP DP  RH WIND       PRES   REMARKS
ANDERSON       SUNNY     64  30  27 SW6       30.09F
COLUMBUS       SUNNY     64  27  24 S7        30.10F
GREENWOOD *+   SUNNY     64  27  24 S6G17     30.08F
INDIANAPOLIS   MOSUNNY   67  32  27 SE15      30.05F
-EAGLE CREEK   SUNNY     64  32  30 S9        30.06F
KOKOMO *+      SUNNY     66  37  34 S9G16     30.05F
MT COMFORT *+  SUNNY     64  16  15 SE9       30.08F
SHELBYVILLE    SUNNY     67  35  30 S10       30.08F

$$

INZ033-034-041-042-049-050-058-059-012000-
EAST CENTRAL INDIANA

CITY           SKY/WX    TMP DP  RH WIND       PRES   REMARKS
MUNCIE         SUNNY     65  32  29 S8        30.07F

$$

INZ060-061-067>069-081>083-085>088-012000-
SOUTHWEST INDIANA

CITY           SKY/WX    TMP DP  RH WIND       PRES   REMARKS
EVANSVILLE     SUNNY     69  39  33 E9        30.07F
HUNTINGBURG *+ SUNNY     68  36  30 SE8       30.08F

$$

INZ062-063-066-070>080-084-089>092-012000-
SOUTH CENTRAL AND SOUTHEAST INDIANA

CITY           SKY/WX    TMP DP  RH WIND       PRES   REMARKS
BLOOMINGTON    SUNNY     67  32  27 S8        30.07F
MADISON *+     SUNNY     64  28  25 SE7       30.12F
SEYMOUR +      SUNNY     68  37  32 SE10      30.09F

$$




USA.gov is the U.S. government's official web portal to all federal, state and local government web resources and services.